Simultaneous Nadir Overpasses (SNOs) Predictions

Prediction of SNOs between GOES-15 and TERRA Satellite Orbit:

Table of predicted SNOs for the next 14.0 days since TLE Epoch: 8/30/2014
Index Date Time (GOES-15) GOES-15 Lat,Lon TERRA Lat,Lon Distance(km) Time Diff (sec)
1 08/31/2014 19:28:13 -0.32,-134.83 -0.48,-134.20 71.28 80
2 09/02/2014 19:16:01 -0.31,-134.70 -1.06,-131.24 393.75 80
3 09/03/2014 07:34:45 0.33,-134.59 -0.06,-136.43 208.81 80
4 09/05/2014 07:25:13 0.33,-134.46 0.53,-133.46 112.78 80
5 09/05/2014 19:43:49 -0.34,-134.49 0.52,-138.63 469.91 80
6 09/07/2014 07:13:01 0.32,-134.32 1.14,-130.50 433.92 80
7 09/07/2014 19:31:37 -0.34,-134.35 -0.09,-135.67 148.80 80
8 09/09/2014 19:22:04 -0.34,-134.21 -0.65,-132.70 172.01 80
9 09/10/2014 07:40:48 0.35,-134.10 -0.45,-137.89 430.37 80
10 09/11/2014 19:09:51 -0.34,-134.06 -1.23,-129.73 492.56 80
11 09/12/2014 07:28:35 0.35,-133.95 0.13,-134.92 109.94 80




NCC Satellite Simultaneous Nadir Overpasses (SNOs) Prediction Service
